CZ-3B DEB, 42475

Orbit data source: Space-Track

CZ-3B DEB, 42475 is space debris in HEO originally from a launch on Mon, 19 Dec 2011 UTC launched from the Xichang Space Center, China (XSC). Debris objects in space refer to the collection of defunct objects orbiting the Earth. Examples of debris include non-operational satellites, rocket bodies, and fragments generated from explosions, collisions, or faulty payload assembly.

Loading next visibility...
Identifier
42475, 2011-077AQ
Orbit
HEO
Country
Flag of CNCN / PRC
Related business
Manufacturer
CALT
Mission
Spacecraft
Bus & Motor
Unknown
Mass
Unknown
Launch date (UTC)
2011-12-19 (15 years ago)
Launch vehicle
Unknown
Launch site
Xichang Space Center, China (XSC)
Object type
Payload
Rocket body
Debris
Shape & HBR
Unknown shape, 0.2 m
Radar Cross Section
Medium (>0.1 m² and <1 m²)

Expand to show TLE details & history
Last TLE update: 3 days ago

TLE from 3 days ago
0 CZ-3B DEB
1 42475U 11077AQ  26170.56741165  .00000018  00000-0  10382-1 0  9993
2 42475  26.4560 303.8063 7424392 130.3468 322.5559  1.91469694 32933
Epoch: 2026-06-19T13:37Z
TLE epoch observation values (Epoch: 2026-06-19T13:37:04.366Z)
Latitude
0.00002°
Longitude
-168.32728°
Altitude
17,270.439 km
Speed
4.377 km/s
True Right ascension
20h 14m 56s
True Declination
0° 00' 00"
Sunlit
Object was in daylight at epoch
Visualization orbit readout
Latitude
Unknown
Longitude
Unknown
Altitude
Unknown
Speed
Unknown
Apparent Right ascension
Unknown
Apparent Declination
Unknown
Sunlit
N/A
Visualization observer readout
Local Sidereal Time
21:58:15
Azimuth
Unknown
Elevation
Unknown
Doppler factor
Unknown
Orbital elements
Apogee altitude
41,362.248 km
Perigee altitude
678.667 km
Semi-major axis
27,398.594 km
Eccentricity
0.74244
Inclination
26.456°
RAAN
303.8063°
Arg. of periapsis
130.3468°
True anomaly
229.8262°
Mean anomaly
322.5559°
Eccentric anomaly
280.76602°
Mean motion
0.47858 °/min
Orbital period
752.23 mins
BSTAR
0.010382
Loading maneuver chart data...
Computing Atmospheric mass density...
Loading historical data...
Loading historical data...
Loading historical data...
Loading historical data...
Loading historical data...
Loading historical data...
Loading historical data...

Documentation

Showing up to 5 results
|